New Century, KS

4:36 PM CST on February 26, 2017 (GMT -0600)
New Century Aircenter

Weather History for KIXD - April, 2013

Change the Weather History Date:

Tuesday, April 9, 2013

  Actual Average Record
Temperature  
Mean Temperature 62 °F -  
Max Temperature 72 °F 62 °F 86 °F (2011)
Min Temperature 51 °F 40 °F 21 °F (2003)
Degree Days  
Heating Degree Days 4    
Growing Degree Days 12 (Base 50)    
Moisture  
Dew Point 58 °F    
Average Humidity 79    
Maximum Humidity 94    
Minimum Humidity 68    
Precipitation  
Precipitation 0.60 in - - ()
Sea Level Pressure  
Sea Level Pressure 29.72 in    
Wind  
Wind Speed 12 mph (SE)    
Max Wind Speed 18 mph    
Max Gust Speed 25 mph    
Visibility 8 miles    
Events Rain , Thunderstorm    
Averages and records for this station are not official NWS values.
T = Trace of Precipitation, MM = Missing Value Source: NWS Daily Summary

Daily Weather History Graph

Daily Weather History Graph

Search for Another Location

Airport or City:

Trip Planner

Search our weather history database for the weather conditions in past years. The results will help you decide how hot, cold, wet, or windy it might be!

Date:

Astronomy

Apr. 09, 2013 Rise Set
Actual Time 6:51 AM CDT 7:51 PM CDT
Civil Twilight 6:24 AM CDT 8:18 PM CDT
Nautical Twilight 5:52 AM CDT 8:50 PM CDT
Astronomical Twilight 5:18 AM CDT 9:24 PM CDT
Moon 6:14 AM CDT (4/9) 7:27 PM CDT (4/9)
Length of Visible Light 13h 53m
Length of Day
12h 59m
Waning Crescent, 1% of the Moon is Illuminated
Apr 9
Waning Crescent
Apr 10
New
Apr 18
First Quarter
Apr 25
Full
May 2
Last Quarter

Hourly Weather History & Observations

Time (CDT) Temp. Dew Point Humidity Pressure Visibility Wind Dir Wind Speed Gust Speed Precip Events Conditions
12:53 AM 64.9 °F 57.0 °F 75% 29.68 in 10.0 mi SE 12.7 mph - N/A   Overcast
1:53 AM 64.9 °F 57.0 °F 75% 29.66 in 10.0 mi SE 16.1 mph - N/A   Overcast
2:53 AM 64.9 °F 55.9 °F 73% 29.64 in 10.0 mi SE 17.3 mph - N/A   Overcast
3:53 AM 64.9 °F 55.9 °F 73% 29.62 in 10.0 mi SE 16.1 mph - N/A   Overcast
4:53 AM 64.9 °F 55.9 °F 73% 29.63 in 10.0 mi SE 16.1 mph - N/A   Overcast
5:53 AM 64.9 °F 55.9 °F 73% 29.65 in 10.0 mi SE 12.7 mph - N/A   Overcast
6:53 AM 64.9 °F 55.9 °F 73% 29.66 in 10.0 mi SE 12.7 mph - N/A   Overcast
7:53 AM 64.9 °F 57.0 °F 75% 29.69 in 10.0 mi SE 11.5 mph - N/A   Overcast
8:53 AM 66.0 °F 57.0 °F 73% 29.69 in 10.0 mi SSE 15.0 mph - N/A   Overcast
9:53 AM 66.0 °F 57.0 °F 73% 29.74 in 10.0 mi SSW 4.6 mph - N/A   Overcast
10:53 AM 66.0 °F 57.9 °F 75% 29.75 in 9.0 mi Calm Calm - 0.00 in Rain Light Rain
11:12 AM 66.2 °F 57.2 °F 73% 29.78 in 10.0 mi SSE 5.8 mph - 0.00 in   Overcast
11:53 AM 66.0 °F 59.0 °F 78% 29.76 in 10.0 mi SE 4.6 mph - 0.00 in   Overcast
12:06 PM 66.2 °F 59.0 °F 78% 29.78 in 10.0 mi SE 6.9 mph - N/A   Overcast
12:15 PM 66.2 °F 59.0 °F 78% 29.78 in 10.0 mi ESE 6.9 mph - N/A   Overcast
12:53 PM 68.0 °F 59.0 °F 73% 29.75 in 9.0 mi SE 6.9 mph - N/A   Overcast
1:53 PM 70.0 °F 59.0 °F 68% 29.73 in 9.0 mi SE 10.4 mph - N/A   Overcast
2:53 PM 71.1 °F 60.1 °F 68% 29.72 in 8.0 mi SE 16.1 mph - N/A   Overcast
3:53 PM 71.1 °F 60.1 °F 68% 29.70 in 9.0 mi SE 17.3 mph 24.2 mph N/A   Mostly Cloudy
4:53 PM 70.0 °F 60.1 °F 71% 29.70 in 8.0 mi SE 16.1 mph - N/A   Overcast
5:53 PM 70.0 °F 60.1 °F 71% 29.71 in 7.0 mi SE 12.7 mph - N/A   Overcast
6:53 PM 69.1 °F 61.0 °F 75% 29.71 in 7.0 mi SE 9.2 mph - 0.00 in   Mostly Cloudy
7:53 PM 68.0 °F 62.1 °F 81% 29.71 in 7.0 mi ESE 8.1 mph - N/A   Overcast
8:53 PM 68.0 °F 61.0 °F 78% 29.70 in 8.0 mi ESE 9.2 mph - N/A   Overcast
9:25 PM 66.2 °F 62.6 °F 88% 29.73 in 6.0 mi SE 9.2 mph - 0.00 in Rain , Thunderstorm Light Rain
9:53 PM 66.9 °F 62.1 °F 84% 29.71 in 7.0 mi SE 13.8 mph - 0.01 in Rain , Thunderstorm Light Rain
10:02 PM 66.2 °F 62.6 °F 88% 29.73 in 7.0 mi SE 8.1 mph - 0.00 in Rain Light Rain
10:31 PM 66.2 °F 62.6 °F 88% 29.72 in 8.0 mi SE 6.9 mph - 0.00 in Thunderstorm Mostly Cloudy
10:53 PM 66.0 °F 62.1 °F 87% 29.71 in 8.0 mi West 9.2 mph - 0.00 in   Mostly Cloudy
11:00 PM 64.4 °F 60.8 °F 88% 29.74 in 7.0 mi WNW 9.2 mph 18.4 mph N/A Thunderstorm Overcast
11:17 PM 53.6 °F 51.8 °F 94% 29.75 in 1.8 mi WNW 18.4 mph 25.3 mph 0.16 in Rain , Thunderstorm Heavy Rain
11:29 PM 53.6 °F 51.8 °F 94% 29.75 in 3.0 mi WNW 16.1 mph - 0.24 in Rain , Thunderstorm Thunderstorms and Rain
11:47 PM 53.6 °F 51.8 °F 94% 29.75 in 1.8 mi NW 17.3 mph 20.7 mph 0.44 in Rain , Thunderstorm Heavy Thunderstorms and Rain
11:53 PM 52.0 °F 50.0 °F 93% 29.74 in 1.0 mi NW 15.0 mph 24.2 mph 0.59 in Rain , Thunderstorm Heavy Thunderstorms and Rain
11:58 PM 51.8 °F 50.0 °F 94% 29.76 in 1.5 mi WNW 13.8 mph 24.2 mph 0.01 in Rain , Thunderstorm Light Thunderstorms and Rain